Detroit, MI

6:25 AM EST on February 22, 2017 (GMT -0500)
Detroit Metro Wayne County

Weather History for KDTW - November, 2014

Change the Weather History Date:

Sunday, November 2, 2014

  Actual Average Record
Temperature  
Mean Temperature 37 °F 47 °F  
Max Temperature 48 °F 55 °F 75 °F (1933)
Min Temperature 25 °F 39 °F 22 °F (1951)
Degree Days  
Heating Degree Days 28 18  
Month to date heating degree days 57 36  
Since 1 July heating degree days 569 547  
Cooling Degree Days 0 0  
Month to date cooling degree days 0 0  
Year to date cooling degree days 704 803  
Moisture  
Dew Point 22 °F    
Average Humidity 55    
Maximum Humidity 81    
Minimum Humidity 29    
Precipitation  
Precipitation 0.00 in 0.09 in 1.02 in (1955)
Month to date precipitation 0.00 0.18  
Year to date precipitation 34.49 28.40  
Snow  
Snow 0.00 in 0.00 in 4.70 in (1966)
Month to date snowfall 0.0 0.0  
Since 1 July snowfall T 0.1  
Since 1 September snowfall T 0.1  
Snow Depth 0.00 in    
Sea Level Pressure  
Sea Level Pressure 30.39 in    
Wind  
Wind Speed 7 mph (WSW)    
Max Wind Speed 13 mph    
Max Gust Speed 16 mph    
Visibility 10 miles    
Events      
T = Trace of Precipitation, MM = Missing Value Source: NWS Daily Summary

Daily Weather History Graph

Daily Weather History Graph

Search for Another Location

Airport or City:

Trip Planner

Search our weather history database for the weather conditions in past years. The results will help you decide how hot, cold, wet, or windy it might be!

Date:

Astronomy

Nov. 02, 2014 Rise Set
Actual Time 7:07 AM EST 5:25 PM EST
Civil Twilight 6:38 AM EST 5:54 PM EST
Nautical Twilight 6:05 AM EST 6:27 PM EST
Astronomical Twilight 5:32 AM EST 7:00 PM EST
Moon 3:01 PM EST (11/2) 2:03 AM EST (11/2)
Length of Visible Light 11h 16m
Length of Day
10h 18m
Waxing Gibbous, 78% of the Moon is Illuminated
Nov 2
Waxing Gibbous
Nov 6
Full
Nov 14
Last Quarter
Nov 22
New
Nov 29
First Quarter

Hourly Weather History & Observations

Time (EST) Temp. Windchill Dew Point Humidity Pressure Visibility Wind Dir Wind Speed Gust Speed Precip Events Conditions
12:53 AM 28.0 °F 21.7 °F 21.9 °F 78% 30.38 in 10.0 mi WNW 5.8 mph - N/A   Clear
1:53 AM 28.9 °F 21.1 °F 21.9 °F 75% 30.38 in 10.0 mi WNW 8.1 mph - N/A   Clear
1:53 AM 28.0 °F 21.7 °F 21.0 °F 75% 30.38 in 10.0 mi WNW 5.8 mph - N/A   Clear
2:53 AM 28.0 °F 20.0 °F 21.9 °F 78% 30.39 in 10.0 mi WNW 8.1 mph - N/A   Clear
3:53 AM 27.0 °F 19.5 °F 21.0 °F 78% 30.40 in 10.0 mi NW 6.9 mph - N/A   Clear
4:53 AM 27.0 °F 20.5 °F 21.0 °F 78% 30.42 in 10.0 mi WNW 5.8 mph - N/A   Clear
5:53 AM 26.1 °F 18.4 °F 21.0 °F 81% 30.44 in 10.0 mi WNW 6.9 mph - N/A   Clear
6:53 AM 26.1 °F 20.5 °F 21.0 °F 81% 30.45 in 10.0 mi West 4.6 mph - N/A   Scattered Clouds
7:53 AM 27.0 °F 18.7 °F 21.9 °F 81% 30.45 in 10.0 mi West 8.1 mph - N/A   Scattered Clouds
8:53 AM 32.0 °F 26.4 °F 23.0 °F 69% 30.47 in 10.0 mi WNW 5.8 mph - N/A   Partly Cloudy
9:53 AM 37.0 °F 34.5 °F 24.1 °F 59% 30.46 in 10.0 mi West 3.5 mph - N/A   Scattered Clouds
10:53 AM 39.9 °F 34.5 °F 21.9 °F 49% 30.45 in 10.0 mi West 8.1 mph - N/A   Scattered Clouds
11:53 AM 42.1 °F 38.4 °F 21.0 °F 43% 30.43 in 10.0 mi WSW 5.8 mph - N/A   Mostly Cloudy
12:53 PM 44.1 °F 41.5 °F 19.9 °F 38% 30.40 in 10.0 mi WSW 4.6 mph - N/A   Mostly Cloudy
1:53 PM 45.0 °F 41.8 °F 21.0 °F 39% 30.37 in 10.0 mi South 5.8 mph - N/A   Partly Cloudy
2:53 PM 46.9 °F - 19.0 °F 33% 30.35 in 10.0 mi SSW 9.2 mph - N/A   Partly Cloudy
3:53 PM 48.0 °F - 18.0 °F 30% 30.34 in 10.0 mi SW 10.4 mph - N/A   Partly Cloudy
4:53 PM 46.0 °F 40.6 °F 19.9 °F 35% 30.33 in 10.0 mi SW 11.5 mph - N/A   Partly Cloudy
5:53 PM 42.1 °F 36.6 °F 24.1 °F 49% 30.34 in 10.0 mi South 9.2 mph - N/A   Partly Cloudy
6:53 PM 39.0 °F 34.0 °F 24.1 °F 55% 30.33 in 10.0 mi South 6.9 mph - N/A   Partly Cloudy
7:53 PM 37.0 °F 31.6 °F 24.1 °F 59% 30.33 in 10.0 mi South 6.9 mph - N/A   Scattered Clouds
8:53 PM 36.0 °F 30.3 °F 24.1 °F 62% 30.33 in 10.0 mi South 6.9 mph - N/A   Mostly Cloudy
9:53 PM 34.0 °F 28.0 °F 23.0 °F 64% 30.32 in 10.0 mi South 6.9 mph - N/A   Scattered Clouds
10:53 PM 34.0 °F 28.0 °F 24.1 °F 67% 30.32 in 10.0 mi South 6.9 mph - N/A   Partly Cloudy